CDT,Max TemperatureF,Mean TemperatureF,Min TemperatureF,Max Dew PointF,MeanDew PointF,Min DewpointF,Max Humidity, Mean Humidity, Min Humidity, Max Sea Level PressureIn, Mean Sea Level PressureIn, Min Sea Level PressureIn, Max VisibilityMiles, Mean VisibilityMiles, Min VisibilityMiles, Max Wind SpeedMPH, Mean Wind SpeedMPH, Max Gust SpeedMPH,PrecipitationIn, CloudCover, Events, WindDirDegrees
2013-10-1,75,60,44,54,44,32,86,53,21,30.01,29.83,29.59,10,10,10,18,9,28,0.00,0,,260
2013-10-2,77,57,38,57,43,35,100,69,24,30.04,29.95,29.83,10,10,3,21,4,33,0.00,4,Rain,107
2013-10-3,59,57,55,58,56,55,100,96,90,29.96,29.88,29.86,10,8,1,16,8,20,0.62,8,Rain,40
2013-10-4,58,56,53,57,54,53,99,95,90,29.98,29.93,29.81,10,8,2,21,13,29,0.15,8,Rain,55
2013-10-5,59,48,38,59,46,38,100,86,63,29.85,29.79,29.76,10,9,1,15,8,21,0.02,5,Rain,124
2013-10-6,52,44,38,50,45,38,100,97,89,29.88,29.77,29.71,10,7,1,17,4,25,0.14,5,Rain,311
2013-10-7,68,54,41,46,41,37,95,70,32,29.99,29.94,29.86,10,10,7,7,4,,0.00,1,,271
2013-10-8,79,62,47,49,46,42,82,58,33,29.95,29.86,29.79,10,10,10,20,8,32,0.00,0,,162
2013-10-9,76,65,54,53,49,48,79,61,42,30.03,29.99,29.91,10,10,10,13,8,21,0.00,0,,163
2013-10-10,79,64,50,55,50,47,85,63,38,30.03,29.93,29.84,10,10,7,14,6,24,0.00,0,,142
2013-10-11,72,63,55,62,55,48,90,74,57,29.84,29.72,29.59,10,10,4,26,11,38,0.46,2,Rain,147
2013-10-12,58,48,39,47,41,36,91,72,46,30.22,29.94,29.73,10,10,10,24,11,33,0.03,5,Rain,244
2013-10-13,59,46,32,41,35,32,99,73,36,30.44,30.36,30.22,10,10,10,6,3,,0.00,0,,285
2013-10-14,52,46,41,48,41,36,97,78,63,30.39,30.20,29.88,10,9,4,20,7,26,0.73,6,Rain,90
2013-10-15,52,48,45,52,48,43,100,97,92,29.89,29.75,29.65,10,6,1,21,14,29,0.41,8,Rain,58
2013-10-16,54,44,35,43,39,31,98,80,41,29.98,29.93,29.89,10,10,7,18,10,25,0.01,4,,300
2013-10-17,50,42,35,47,39,35,97,85,69,29.91,29.85,29.81,10,10,7,18,4,24,0.10,5,Rain,280
2013-10-18,53,42,32,39,35,28,97,75,40,30.01,29.94,29.86,10,10,10,18,8,26,0.00,5,,273
2013-10-19,47,37,28,40,33,28,99,83,56,29.85,29.77,29.71,10,10,10,20,7,26,0.00,4,Rain,260
2013-10-20,46,38,29,41,34,26,97,87,67,29.92,29.74,29.60,10,10,5,17,5,28,0.01,7,Rain-Snow,242
2013-10-21,41,32,23,26,23,20,94,67,50,29.99,29.96,29.93,10,10,10,16,10,26,0.00,5,,292
2013-10-22,40,31,22,32,27,21,96,81,64,30.06,30.01,29.97,10,10,10,10,3,16,0.00,5,,305
2013-10-23,38,32,26,31,25,21,96,72,51,30.13,30.06,30.02,10,10,7,17,7,22,0.00,7,,300
2013-10-24,45,34,24,32,28,21,95,77,57,30.33,30.25,30.14,10,10,7,15,8,21,0.00,6,,295
2013-10-25,60,41,22,42,33,21,96,74,49,30.33,30.07,29.81,10,10,10,17,6,28,0.00,1,,224
2013-10-26,48,37,25,39,30,24,95,69,50,30.14,30.05,29.85,10,10,10,18,12,25,0.00,1,,299
2013-10-27,58,42,25,36,30,25,96,68,41,30.15,29.93,29.82,10,10,10,16,5,23,0.00,0,,273
2013-10-28,43,36,30,30,25,20,84,68,44,30.43,30.36,30.16,10,10,10,17,12,23,0.00,0,,42
2013-10-29,40,36,32,37,31,26,98,82,73,30.39,30.24,30.07,10,10,3,13,9,18,0.04,8,Rain,58
2013-10-30,48,42,37,49,44,37,100,100,97,30.07,29.89,29.69,7,2,0,13,6,,0.03,8,Fog-Rain,73
2013-10-31,44,41,37,46,39,37,100,96,89,29.68,29.52,29.43,10,6,2,14,10,20,0.00,8,Rain,276